When you browse on this site, cookies collect data to enhance your experience and personalize the content and advertising you see.
Visit our Privacy Policy to learn more. By continuing to use the site, you agree to this use of cookies and data.
  • In Latvia
  • List of Countries
  • For 7 days
  • Water Temperature
  • Weather Map
  • Weather Widgets
  • user-avatar
    Login

    Hourly Weather Ozerki

    Today, 22 January, Wednesday

    Time Temperature Precipitation Wind Pressure Humidity
    00:00 -2°C° 0 mm 7 mps 760 mmHg 83%
    01:00 -2°C° 0 mm 8 mps 759 mmHg 82%
    02:00 -2°C° 0 mm 8 mps 758 mmHg 81%
    03:00 -2°C° 0 mm 7 mps 758 mmHg 75%
    04:00 -2°C° 0 mm 8 mps 757 mmHg 76%
    05:00 -1°C° 0 mm 8 mps 757 mmHg 76%
    06:00 -1°C° 0 mm 8 mps 756 mmHg 77%
    07:00 -1°C° 0 mm 8 mps 756 mmHg 78%
    08:00 -1°C° 0 mm 8 mps 756 mmHg 79%
    09:00 -1°C° 0 mm 7 mps 756 mmHg 81%
    10:00 -1°C° 0 mm 7 mps 756 mmHg 81%
    11:00 -1°C° 0 mm 7 mps 756 mmHg 81%
    12:00 -1°C° 0 mm 7 mps 755 mmHg 81%
    13:00 -1°C° 0 mm 7 mps 755 mmHg 83%
    14:00 -1°C° 0 mm 7 mps 754 mmHg 85%
    15:00 -1°C° 0 mm 7 mps 754 mmHg 87%
    16:00 -1°C° 0.1 mm 8 mps 753 mmHg 90%
    17:00 -1°C° 0.1 mm 8 mps 752 mmHg 92%
    18:00 -3°C° 0.1 mm 9 mps 751 mmHg 94%
    19:00 -3°C° 0.2 mm 9 mps 751 mmHg 95%
    20:00 -3°C° 0.2 mm 9 mps 750 mmHg 95%
    21:00 -3°C° 0.2 mm 9 mps 750 mmHg 95%
    22:00 -3°C° 0.4 mm 9 mps 749 mmHg 95%
    23:00 -3°C° 0.4 mm 9 mps 749 mmHg 95%

    Tomorrow, 23 January, Thursday

    Time Temperature Precipitation Wind Pressure Humidity
    00:00 -2°C° 0.4 mm 8 mps 748 mmHg 95%
    01:00 -2°C° 0.1 mm 8 mps 748 mmHg 93%
    02:00 -1°C° 0.1 mm 8 mps 749 mmHg 90%
    03:00 -1°C° 0.1 mm 7 mps 749 mmHg 87%
    04:00 -2°C° 0 mm 7 mps 748 mmHg 89%
    05:00 -2°C° 0 mm 7 mps 748 mmHg 91%
    06:00 -2°C° 0 mm 6 mps 748 mmHg 93%
    07:00 -2°C° 0.1 mm 6 mps 748 mmHg 93%
    08:00 -1°C° 0.1 mm 5 mps 749 mmHg 93%
    09:00 -1°C° 0.1 mm 4 mps 749 mmHg 93%
    10:00 -1°C° 0.4 mm 5 mps 750 mmHg 87%
    11:00 -2°C° 0.4 mm 6 mps 751 mmHg 82%
    12:00 -2°C° 0.4 mm 7 mps 751 mmHg 76%
    13:00 -2°C° 0 mm 7 mps 752 mmHg 74%
    14:00 -3°C° 0 mm 7 mps 753 mmHg 71%
    15:00 -3°C° 0 mm 7 mps 753 mmHg 69%
    16:00 -3°C° 0 mm 6 mps 754 mmHg 71%
    17:00 -4°C° 0 mm 5 mps 755 mmHg 72%
    18:00 -3°C° 0 mm 4 mps 755 mmHg 74%
    19:00 -4°C° 0 mm 5 mps 756 mmHg 74%
    20:00 -4°C° 0 mm 5 mps 757 mmHg 75%
    21:00 -5°C° 0 mm 6 mps 757 mmHg 75%
    22:00 -5°C° 0 mm 5 mps 757 mmHg 73%
    23:00 -5°C° 0 mm 4 mps 758 mmHg 72%

    Day after tomorrow, 24 January, Friday

    Time Temperature Precipitation Wind Pressure Humidity
    00:00 -5°C° 0 mm 4 mps 758 mmHg 70%
    01:00 -6°C° 0 mm 5 mps 759 mmHg 68%
    02:00 -6°C° 0 mm 5 mps 759 mmHg 66%
    03:00 -6°C° 0 mm 6 mps 760 mmHg 65%
    04:00 -6°C° 0 mm 6 mps 760 mmHg 65%
    05:00 -7°C° 0 mm 5 mps 760 mmHg 66%
    06:00 -7°C° 0 mm 5 mps 760 mmHg 66%
    07:00 -7°C° 0 mm 5 mps 761 mmHg 66%
    08:00 -6°C° 0 mm 5 mps 762 mmHg 66%
    09:00 -6°C° 0 mm 5 mps 762 mmHg 65%
    10:00 -5°C° 0 mm 5 mps 762 mmHg 63%
    11:00 -4°C° 0 mm 5 mps 763 mmHg 60%
    12:00 -4°C° 0 mm 5 mps 763 mmHg 57%
    13:00 -2°C° 0 mm 5 mps 763 mmHg 57%
    14:00 -2°C° 0 mm 5 mps 763 mmHg 56%
    15:00 -2°C° 0 mm 4 mps 763 mmHg 56%
    16:00 -3°C° 0 mm 4 mps 763 mmHg 60%
    17:00 -2°C° 0 mm 3 mps 763 mmHg 64%
    18:00 -4°C° 0 mm 3 mps 763 mmHg 68%
    19:00 -4°C° 0 mm 4 mps 763 mmHg 69%
    20:00 -4°C° 0 mm 4 mps 763 mmHg 70%
    21:00 -4°C° 0 mm 5 mps 763 mmHg 71%
    22:00 -4°C° 0 mm 5 mps 763 mmHg 73%
    23:00 -4°C° 0 mm 6 mps 762 mmHg 75%

    25 January, Saturday

    Time Temperature Precipitation Wind Pressure Humidity
    00:00 -4°C° 0 mm 6 mps 762 mmHg 77%
    01:00 -3°C° 0 mm 7 mps 762 mmHg 77%
    02:00 -3°C° 0 mm 7 mps 761 mmHg 77%
    03:00 -4°C° 0 mm 8 mps 761 mmHg 77%
    04:00 -4°C° 0 mm 8 mps 760 mmHg 80%
    05:00 -4°C° 0 mm 9 mps 760 mmHg 82%
    06:00 -4°C° 0 mm 9 mps 759 mmHg 85%
    07:00 -3°C° 0 mm 9 mps 759 mmHg 79%
    08:00 -3°C° 0 mm 9 mps 759 mmHg 73%
    09:00 -2°C° 0 mm 8 mps 759 mmHg 67%
    10:00 -1°C° 0 mm 9 mps 759 mmHg 68%
    11:00 0°C° 0 mm 10 mps 759 mmHg 68%
    12:00 +1°C° 0 mm 10 mps 759 mmHg 68%
    13:00 +1°C° 0 mm 10 mps 759 mmHg 71%
    14:00 +1°C° 0 mm 10 mps 758 mmHg 75%
    15:00 +1°C° 0 mm 9 mps 758 mmHg 78%
    16:00 +1°C° 0 mm 9 mps 758 mmHg 79%
    17:00 +1°C° 0 mm 9 mps 758 mmHg 80%
    18:00 0°C° 0 mm 9 mps 757 mmHg 81%
    19:00 +1°C° 0 mm 9 mps 757 mmHg 80%
    20:00 +1°C° 0 mm 9 mps 757 mmHg 79%
    21:00 +1°C° 0 mm 9 mps 757 mmHg 78%
    22:00 +1°C° 0 mm 8 mps 757 mmHg 79%
    23:00 +1°C° 0 mm 8 mps 757 mmHg 79%

    26 January, Sunday

    Time Temperature Precipitation Wind Pressure Humidity
    00:00 +1°C° 0 mm 8 mps 757 mmHg 79%
    01:00 0°C° 0 mm 8 mps 757 mmHg 78%
    02:00 0°C° 0 mm 7 mps 757 mmHg 78%
    03:00 -1°C° 0 mm 7 mps 757 mmHg 77%
    04:00 -1°C° 0 mm 6 mps 757 mmHg 77%
    05:00 -1°C° 0 mm 6 mps 757 mmHg 77%
    06:00 -1°C° 0 mm 5 mps 757 mmHg 77%
    07:00 -1°C° 0 mm 5 mps 758 mmHg 78%
    08:00 -1°C° 0 mm 5 mps 759 mmHg 79%
    09:00 -1°C° 0 mm 5 mps 759 mmHg 81%
    10:00 0°C° 0 mm 5 mps 760 mmHg 77%
    11:00 0°C° 0 mm 5 mps 760 mmHg 74%
    12:00 +1°C° 0 mm 5 mps 761 mmHg 70%
    13:00 +1°C° 0 mm 5 mps 761 mmHg 71%
    14:00 +1°C° 0 mm 5 mps 761 mmHg 72%
    15:00 +1°C° 0 mm 5 mps 761 mmHg 73%
    16:00 0°C° 0 mm 5 mps 762 mmHg 74%
    17:00 0°C° 0 mm 4 mps 762 mmHg 74%
    18:00 -1°C° 0 mm 4 mps 763 mmHg 75%
    19:00 0°C° 0 mm 3 mps 764 mmHg 76%
    20:00 -1°C° 0 mm 3 mps 764 mmHg 78%
    21:00 -1°C° 0 mm 2 mps 765 mmHg 79%
    22:00 -1°C° 0 mm 2 mps 765 mmHg 80%
    23:00 -1°C° 0 mm 2 mps 765 mmHg 81%

    27 January, Monday

    Time Temperature Precipitation Wind Pressure Humidity
    00:00 -2°C° 0 mm 2 mps 766 mmHg 81%
    01:00 -2°C° 0 mm 2 mps 766 mmHg 82%
    02:00 0°C° 0 mm 1 mps 766 mmHg 82%
    03:00 0°C° 0 mm 1 mps 767 mmHg 82%
    04:00 0°C° 0 mm 1 mps 767 mmHg 82%
    05:00 0°C° 0 mm 1 mps 767 mmHg 82%
    06:00 -1°C° 0 mm 0 mps 767 mmHg 82%
    07:00 0°C° 0 mm 1 mps 767 mmHg 80%
    08:00 0°C° 0 mm 1 mps 767 mmHg 79%
    09:00 +1°C° 0 mm 1 mps 768 mmHg 77%
    10:00 +2°C° 0 mm 1 mps 768 mmHg 72%
    11:00 +2°C° 0 mm 2 mps 768 mmHg 66%
    12:00 +3°C° 0 mm 2 mps 768 mmHg 61%
    13:00 +3°C° 0 mm 2 mps 767 mmHg 60%
    14:00 +3°C° 0 mm 2 mps 767 mmHg 59%
    15:00 +4°C° 0 mm 2 mps 766 mmHg 58%
    16:00 +3°C° 0 mm 2 mps 766 mmHg 63%
    17:00 +2°C° 0 mm 2 mps 766 mmHg 69%
    18:00 +1°C° 0 mm 2 mps 766 mmHg 74%
    19:00 +1°C° 0 mm 2 mps 766 mmHg 77%
    20:00 0°C° 0 mm 3 mps 765 mmHg 80%
    21:00 0°C° 0 mm 3 mps 765 mmHg 83%
    22:00 0°C° 0 mm 3 mps 765 mmHg 85%
    23:00 +1°C° 0 mm 2 mps 765 mmHg 87%
    Show more